FW5335 Weather Reports


time (UTC)temp
C
wind
direction
speed
KPH
gust
KPH
rain 1hr
cm
rain 24hr
cm
rain mn
cm
humidity
%
barometer
mb
20210302010028 3 90 1.6 3.2 0.00 0.00 0.00 89 1030.4
20210302005146 3 68 1.6 3.2 0.00 0.00 0.00 89 1030.2
20210302004032 3 90 1.6 4.8 0.00 0.00 0.00 89 1030.2
20210302003433 3 90 1.6 3.2 0.00 0.00 0.00 88 1030.3
20210302002037 3 90 1.6 6.4 0.00 0.00 0.00 88 1030.5
20210302001024 3 113 3.2 4.8 0.00 0.00 0.00 88 1030.4
20210302000034 3 90 3.2 4.8 0.00 0.00 0.00 88 1030.4
20210301235145 3 113 3.2 6.4 0.00 0.00 0.00 88 1030.4
20210301234022 3 90 3.2 6.4 0.00 0.00 0.00 88 1030.3
20210301233331 3 90 3.2 8.0 0.00 0.00 0.00 88 1030.4
20210301232025 4 68 1.6 4.8 0.00 0.00 0.00 88 1030.4
20210301231023 4 68 3.2 8.0 0.00 0.00 0.00 87 1030.4
20210301230036 4 68 3.2 8.0 0.00 0.00 0.00 87 1030.3
20210301225109 4 68 3.2 11.3 0.00 0.00 0.00 87 1030.2
20210301224022 4 90 3.2 8.0 0.00 0.00 0.00 87 1030.3
20210301223318 5 90 3.2 6.4 0.00 0.00 0.00 87 1030.1
20210301222029 5 68 4.8 9.7 0.00 0.00 0.00 87 1030.1
20210301221038 5 90 3.2 6.4 0.00 0.00 0.00 86 1030.0
20210301220023 5 90 1.6 9.7 0.00 0.00 0.00 86 1029.9
20210301215132 5 135 1.6 3.2 0.00 0.00 0.00 85 1029.8
20210301214032 5 135 1.6 4.8 0.00 0.00 0.00 86 1029.9
20210301213436 5 90 3.2 8.0 0.00 0.00 0.00 85 1029.8
20210301212042 5 90 3.2 6.4 0.00 0.00 0.00 85 1029.6
20210301211024 5 90 3.2 9.7 0.00 0.00 0.00 85 1029.5
20210301210030 5 45 3.2 9.7 0.00 0.00 0.00 85 1029.6
20210301205219 5 113 3.2 6.4 0.00 0.00 0.00 85 1029.4
20210301204030 6 90 1.6 9.7 0.00 0.00 0.00 84 1029.5
20210301203344 6 90 3.2 14.5 0.00 0.00 0.00 84 1029.4
20210301202021 6 90 4.8 11.3 0.00 0.00 0.00 84 1029.4
20210301201021 6 68 6.4 12.9 0.00 0.00 0.00 83 1029.4
20210301200032 6 68 3.2 12.9 0.00 0.00 0.00 83 1029.4
20210301195207 6 68 4.8 11.3 0.00 0.00 0.00 83 1029.5
20210301194027 6 90 3.2 6.4 0.00 0.00 0.00 83 1029.4
20210301193303 6 90 3.2 8.0 0.00 0.00 0.00 82 1029.5
20210301192030 6 90 3.2 9.7 0.00 0.00 0.00 82 1029.5
20210301191027 7 0 3.2 8.0 0.00 0.00 0.00 82 1029.4
20210301190040 7 23 3.2 6.4 0.00 0.00 0.00 81 1029.5
20210301185051 7 45 4.8 9.7 0.00 0.00 0.00 81 1029.4
20210301184019 7 45 4.8 9.7 0.00 0.00 0.00 80 1029.3
20210301183539 8 23 6.4 12.9 0.00 0.00 0.00 79 1029.2
20210301182032 8 23 8.0 19.3 0.00 0.00 0.00 79 1029.2
20210301181027 8 23 9.7 14.5 0.00 0.00 0.00 76 1029.0
20210301180033 9 23 3.2 6.4 0.00 0.00 0.00 73 1029.0
20210301175148 10 45 3.2 6.4 0.00 0.00 0.00 73 1029.0
20210301174027 10 45 3.2 8.0 0.00 0.00 0.00 72 1028.8
20210301173309 10 45 4.8 9.7 0.00 0.00 0.00 71 1028.9
20210301172021 10 45 4.8 12.9 0.00 0.00 0.00 70 1028.8
20210301171022 11 68 4.8 9.7 0.00 0.00 0.00 68 1028.9
20210301170033 11 68 6.4 11.3 0.00 0.00 0.00 66 1028.8
20210301165112 11 90 8.0 16.1 0.00 0.00 0.00 66 1028.9
20210301164026 11 68 9.7 19.3 0.00 0.00 0.00 65 1028.7
20210301163402 11 90 4.8 16.1 0.00 0.00 0.00 65 1028.9
20210301162032 11 90 8.0 16.1 0.00 0.00 0.00 65 1028.9
20210301161027 11 90 8.0 12.9 0.00 0.00 0.00 65 1028.9
20210301160037 11 90 12.9 22.5 0.00 0.00 0.00 64 1029.0
20210301155140 11 90 11.3 16.1 0.00 0.00 0.00 65 1029.0
20210301154020 11 68 9.7 20.9 0.00 0.00 0.00 65 1029.0
20210301153046 11 90 12.9 19.3 0.00 0.00 0.00 66 1029.3
20210301152114 11 90 8.0 17.7 0.00 0.00 0.00 66 1029.3
20210301151026 11 68 8.0 20.9 0.00 0.00 0.00 68 1029.3
20210301150023 11 90 11.3 19.3 0.00 0.00 0.00 67 1029.5
20210301145027 11 23 9.7 19.3 0.00 0.00 0.00 70 1029.5
20210301144026 11 90 8.0 14.5 0.00 0.00 0.00 71 1029.4
20210301143051 11 90 8.0 16.1 0.00 0.00 0.00 72 1029.6
20210301142026 11 90 9.7 16.1 0.00 0.00 0.00 71 1029.6
20210301141034 10 90 9.7 17.7 0.00 0.00 0.00 72 1029.6
20210301140048 10 68 8.0 17.7 0.00 0.00 0.00 73 1029.8
20210301135025 10 90 8.0 17.7 0.00 0.00 0.00 72 1029.8
20210301134313 10 68 11.3 19.3 0.00 0.00 0.00 74 1029.9
20210301133028 10 68 9.7 19.3 0.00 0.00 0.00 75 1030.2
20210301132022 9 68 8.0 17.7 0.00 0.00 0.00 76 1030.5
20210301131022 9 68 8.0 17.7 0.00 0.00 0.00 78 1030.5
20210301130031 8 90 9.7 17.7 0.00 0.00 0.00 79 1030.6
20210301125251 7 68 9.7 19.3 0.00 0.00 0.00 80 1030.9
20210301124035 7 90 6.4 14.5 0.00 0.00 0.00 81 1030.9
20210301123028 7 68 8.0 17.7 0.00 0.00 0.00 81 1031.1
20210301122039 7 90 8.0 17.7 0.00 0.00 0.00 82 1031.1
20210301121038 7 68 6.4 12.9 0.00 0.00 0.00 83 1031.2
20210301120030 6 68 8.0 17.7 0.00 0.00 0.00 83 1031.4
20210301115027 6 68 9.7 20.9 0.00 0.00 0.00 83 1031.4
20210301114036 6 90 11.3 22.5 0.00 0.00 0.00 83 1031.4
20210301113110 6 68 6.4 17.7 0.00 0.00 0.00 84 1031.4
20210301112042 6 90 8.0 16.1 0.00 0.00 0.00 85 1031.5
20210301111036 6 90 9.7 14.5 0.00 0.00 0.00 85 1031.6
20210301110034 6 90 6.4 16.1 0.00 0.00 0.00 86 1031.7
20210301105053 5 90 11.3 17.7 0.00 0.00 0.00 86 1031.7
20210301104026 5 90 9.7 17.7 0.00 0.00 0.00 87 1031.8
20210301103028 5 90 9.7 19.3 0.00 0.00 0.00 88 1031.7
20210301102026 5 90 6.4 11.3 0.00 0.00 0.00 89 1031.8
20210301101034 5 90 6.4 12.9 0.00 0.00 0.00 89 1031.8
20210301100030 5 90 11.3 20.9 0.00 0.00 0.00 89 1031.7
20210301095046 4 90 9.7 19.3 0.00 0.00 0.00 91 1031.7
20210301094022 4 113 4.8 11.3 0.00 0.00 0.00 91 1031.7
20210301093027 4 90 8.0 14.5 0.00 0.00 0.00 91 1031.7
20210301092022 4 90 11.3 17.7 0.00 0.00 0.00 92 1031.7
20210301091024 4 90 6.4 14.5 0.00 0.00 0.00 92 1031.9
20210301090036 4 68 8.0 17.7 0.00 0.00 0.00 92 1031.9
20210301085031 4 68 8.0 14.5 0.00 0.00 0.00 92 1032.0
20210301084034 3 90 6.4 16.1 0.00 0.00 0.00 93 1031.8
20210301083024 3 90 6.4 12.9 0.00 0.00 0.00 93 1031.9
20210301082041 3 113 6.4 14.5 0.00 0.00 0.00 93 1031.8
20210301081021 3 90 8.0 14.5 0.00 0.00 0.00 93 1031.9
20210301080028 3 90 6.4 14.5 0.00 0.00 0.00 93 1031.9
20210301075023 3 90 8.0 17.7 0.00 0.00 0.00 93 1031.9
20210301074030 3 113 11.3 17.7 0.00 0.00 0.00 93 1031.9
20210301073025 3 90 6.4 12.9 0.00 0.00 0.00 93 1031.7
20210301072025 3 90 6.4 14.5 0.00 0.00 0.00 93 1031.7
20210301071023 2 90 3.2 6.4 0.00 0.00 0.00 93 1031.7
20210301070038 2 68 3.2 8.0 0.00 0.00 0.00 92 1031.7
20210301065031 2 90 1.6 4.8 0.00 0.00 0.00 92 1031.8
20210301064025 2 90 3.2 4.8 0.00 0.00 0.00 92 1031.8
20210301063024 2 113 3.2 6.4 0.00 0.00 0.00 91 1031.7
20210301062031 2 113 1.6 4.8 0.00 0.00 0.00 92 1031.8
20210301061023 2 135 3.2 6.4 0.00 0.00 0.00 92 1031.8
20210301060057 1 113 4.8 6.4 0.00 0.00 0.00 92 1031.8
20210301055025 1 113 3.2 4.8 0.00 0.00 0.00 92 1031.8
20210301054024 1 113 3.2 4.8 0.00 0.00 0.00 92 1032.0
20210301053030 1 113 1.6 3.2 0.00 0.00 0.00 91 1032.0
20210301052026 1 113 1.6 4.8 0.00 0.00 0.00 90 1032.0
20210301051029 1 113 3.2 3.2 0.00 0.00 0.00 90 1031.9
20210301050028 1 0.0 1.6 0.00 0.00 0.00 90 1032.0
20210301045237 1 113 1.6 3.2 0.00 0.00 0.00 90 1031.8
20210301044033 1 113 3.2 4.8 0.00 0.00 0.00 90 1031.8
20210301043022 1 113 3.2 4.8 0.00 0.00 0.00 90 1031.9
20210301042027 1 113 4.8 6.4 0.00 0.00 0.00 90 1031.9
20210301041023 1 113 3.2 6.4 0.00 0.00 0.00 90 1031.9
20210301040037 1 113 3.2 6.4 0.00 0.00 0.00 90 1031.8
20210301035344 1 135 1.6 3.2 0.00 0.00 0.00 89 1032.0
20210301034029 1 135 1.6 3.2 0.00 0.00 0.00 89 1032.0
20210301033024 2 135 1.6 3.2 0.00 0.00 0.00 89 1032.0
20210301032023 2 135 3.2 3.2 0.00 0.00 0.00 89 1032.1
20210301031025 2 135 3.2 4.8 0.00 0.00 0.00 89 1032.1
20210301030026 1 135 3.2 4.8 0.00 0.00 0.00 88 1032.2
20210301025039 2 135 1.6 3.2 0.00 0.00 0.00 88 1032.4
20210301024025 2 135 3.2 4.8 0.00 0.00 0.00 88 1032.5
20210301023057 2 135 1.6 3.2 0.00 0.00 0.00 87 1032.5
20210301022023 2 135 1.6 3.2 0.00 0.00 0.00 87 1032.7
20210301021029 2 135 1.6 3.2 0.00 0.00 0.00 87 1032.5
20210301020041 3 135 3.2 4.8 0.00 0.00 0.00 87 1032.7
20210301015022 3 135 3.2 4.8 0.00 0.00 0.00 87 1032.8
20210301014029 3 113 4.8 6.4 0.00 0.00 0.00 88 1032.9
20210301013044 3 113 1.6 4.8 0.00 0.00 0.00 86 1033.0
20210301012029 3 113 1.6 3.2 0.00 0.00 0.00 86 1033.1
20210301011026 3 113 1.6 3.2 0.00 0.00 0.00 86 1033.1